Flag for Canada Weather past 2 weeks in Fort Liard, Northwest Territories, Canada

Now
24 °F

Cold.


Feels Like: 24 °F
Forecast: 26 / 46 °F
Wind: No wind

Location: Lindberg Landing

Current Time: Mar 29, 2015 at 2:29:29 AM

Latest Report: Mar 29, 2015 at 1:00 AM


Visibility: N/A

Pressure: 29.73 "Hg

Humidity: 88%

Dew point: 20 °F

Location of Fort LiardLocation

Historic Weather in Fort Liard — Graph

°F

Fort Liard temperature yesterday

Maximum temperature yesterday: 51 °F (at 7:00 PM)
Minimum temperature yesterday: 16 °F (at 8:00 AM)
Average temperature yesterday: 33 °F

Past Weeks' High & Low Weather Summary

 TemperatureHumidityPressure
High51 °F (Mar 27, 2:00 PM)100% (Mar 26, 1:00 AM)30.48 "Hg (Mar 26, 1:00 AM)
Low-29 °F (Mar 16, 8:00 AM)27% (Mar 27, 6:00 PM)29.28 "Hg (Mar 14, 2:00 AM)
Average12 °F68%30.06 "Hg
* Reported Mar 14 1:00 AM — Mar 29 1:00 AM, Fort Liard, Weather by CustomWeather, © 2015

Note: Actual official high and low records may vary slightly from our data, if they occured in-between our weather recording intervals... More about our weather records

Advertising

Fort Liard weather history for previous 24 hours

 ConditionsComfort  
Time TempWeatherWind HumidityBarometerVisibility
1:00 AM
Sun, Mar 29
24 °FCold.No wind88%29.73 "HgN/A
12:00 AM26 °FChilly.No wind85%29.74 "HgN/A
11:00 PM
Sat, Mar 28
27 °FChilly.1 mph82%29.75 "HgN/A
10:00 PM29 °FChilly.No wind79%29.75 "HgN/A
9:00 PM33 °FChilly.No wind75%29.76 "HgN/A
8:00 PM43 °FQuite cool.2 mph43%29.76 "HgN/A
7:00 PM51 °FCool.3 mph28%29.76 "HgN/A
6:00 PM47 °FCool.2 mph35%29.77 "HgN/A
5:00 PM50 °FCool.3 mph31%29.77 "HgN/A
4:00 PM49 °FCool.3 mph32%29.77 "HgN/A
3:00 PM50 °FCool.2 mph32%29.76 "HgN/A
2:00 PM50 °FCool.No wind34%29.75 "HgN/A
1:00 PM47 °FCool.2 mph34%29.73 "HgN/A
12:00 PM43 °FQuite cool.3 mph37%29.72 "HgN/A
11:00 AM33 °FChilly.No wind55%29.70 "HgN/A
10:00 AM26 °FChilly.No wind76%29.68 "HgN/A
9:00 AM20 °FCold.No wind90%29.66 "HgN/A
8:00 AM16 °FCold.No wind95%29.64 "HgN/A
7:00 AM17 °FCold.No wind95%29.62 "HgN/A
6:00 AM17 °FCold.No wind94%29.60 "HgN/A
5:00 AM19 °FCold.No wind93%29.59 "HgN/A
4:00 AM20 °FCold.No wind92%29.58 "HgN/A
3:00 AM21 °FCold.No wind90%29.58 "HgN/A
2:00 AM23 °FCold.No wind88%29.57 "HgN/A
Weather by CustomWeather, © 2015

See weather overviewHow to use our weather pages